Regional Weather Roundup
Issued by NWS

Home | Current Version | Previous Version | Graphics & Text | Print | Product List | Glossary On
Versions: 1 2 3 4 5 6 7 8 9 10 11 12 13 14 15 16 17 18 19 20 21 22 23 24 25 26 27 28 29 30 31 32 33 34 35 36 37 38 39 40 41 42 43 44 45 46 47 48
000
ASUS43 KDMX 281107
RWRIA

WEATHER ROUNDUP FOR IOWA
NATIONAL WEATHER SERVICE DES MOINES IA
600 AM CDT THU MAY 28 2015

NOTE: "FAIR" INDICATES FEW OR NO CLOUDS BELOW 12,000 FEET WITH NO
SIGNIFICANT WEATHER AND/OR OBSTRUCTIONS TO VISIBILITY.

* - THESE STATIONS ARE NOT NWS STATIONS...THUS NOT UNDER NWS
QUALITY CONTROL.  THEY ALSO DO NOT REPORT WEATHER SUCH
AS PRECIPITATION OR FOG.

IAZ001>003-012>014-020>022-031>034-043>046-281200-
   NORTHWEST IOWA

CITY           SKY/WX    TMP DP  RH WIND       PRES   REMARKS
CARROLL *      CLEAR     57  55  94 SE5       30.09R
CHEROKEE *     CLEAR     52  52 100 CALM      30.06R
DENISON *      CLEAR     59  55  88 SE5       30.06R
LE MARS *      PTCLDY    57  54  88 CALM      30.06R
ORANGE CITY *  CLEAR     61  50  67 S3        30.05S
SHELDON *      CLEAR     55  52  88 SE5       30.05R
SIOUX CITY     MOCLDY    57  51  80 SE9       30.04R
SPENCER        CLEAR     55  51  86 CALM      30.07R
STORM LAKE *   CLEAR     59  52  77 S9        30.09R
$$

IAZ055>058-069>071-079>083-090>094-281200-
   SOUTHWEST IOWA

CITY           SKY/WX    TMP DP  RH WIND       PRES   REMARKS
ATLANTIC *     CLEAR     61  54  77 SE5       30.09R
AUDUBON *      CLEAR     54  52  94 CALM      30.10R
CLARINDA *     CLEAR     61  55  82 CALM      30.10R
COUNCIL BLFS * CLEAR     61  57  88 SE6       30.07R
CRESTON *      CLEAR     61  57  88 SE5       30.10S
HARLAN  *      CLEAR     55  55 100 CALM      30.11R
LAMONI         CLOUDY    65  55  70 SE6       30.10S
RED OAK *      CLEAR     61  55  82 CALM      30.07S
SHENANDOAH *   CLEAR     64  57  77 SE5       30.08R
$$

IAZ047>049-059>061-072>074-084-281200-
   CENTRAL IOWA

CITY           SKY/WX    TMP DP  RH WIND       PRES   REMARKS
AMES           CLEAR     58  56  93 CALM      30.10S FOG
ANKENY *       CLEAR     57  57 100 CALM      30.10R
CHARITON *     CLEAR     59  55  88 SE6       30.11R
DES MOINES     CLOUDY    63  55  75 S8        30.10R
GRINNELL*      CLEAR     61  54  77 SE5       30.13R
KNOXVILLE *    CLEAR     61  55  82 SE6       30.10R
MARSHALLTOWN   CLEAR     58  54  86 SE6       30.11R
PELLA *        CLEAR     59  57  94 SE3       30.13R
PERRY *          N/A     59  57  94 SE6       30.10R
$$

IAZ004>006-015-016-023>025-035-036-281200-
   NORTH CENTRAL IOWA

CITY           SKY/WX    TMP DP  RH WIND       PRES   REMARKS
ALGONA *       CLEAR     61  55  82 SE8       30.09S
CLARION *      CLEAR     61 N/A N/A S8        30.10S
ESTHERVILLE    CLEAR     54  52  93 S7        30.07R
FORT DODGE *   CLEAR     61  54  77 CALM      30.10R
MASON CITY     CLEAR     57  55  93 S8        30.12R
IOWA FALLS *     N/A     57  55  94 SE3       30.12S
$$

IAZ007>011-017>019-026>030-037>042-050>054-066-281200-
   NORTHEAST IOWA

CITY           SKY/WX    TMP DP  RH WIND       PRES   REMARKS
CEDAR RAPIDS   CLEAR     58  56  93 SE3       30.13S
CHARLES CITY * CLEAR     59  59 100 S7        30.13R
CLINTON *      CLEAR     57  54  88 SE3       30.17F
DECORAH *      CLEAR     63  55  77 S5        30.12S
DUBUQUE        CLEAR     57  54  89 S5        30.15S
MONTICELLO *   CLEAR     59  57  94 E3        30.15R
OELWEIN *      CLEAR     59  55  88 S6        30.15R
WATERLOO       CLEAR     57  54  89 SE3       30.12R
$$

IAZ064-065-067-068-078-281200-
   EAST CENTRAL IOWA

CITY           SKY/WX    TMP DP  RH WIND       PRES   REMARKS
DAVENPORT      CLEAR     59  53  80 SE6       30.15F
IOWA CITY      CLEAR     57  56  96 CALM      30.15S FOG
MT. PLEASANT * CLEAR     57  55  94 SE5       30.15R
MUSCATINE *    CLEAR     57  55  94 CALM      30.14S FOG
QUAD CITIES    CLEAR     55  53  93 CALM      30.14F
$$

IAZ062-063-075>077-085>089-095>099-281200-
   SOUTHEAST IOWA

CITY           SKY/WX    TMP DP  RH WIND       PRES   REMARKS
BURLINGTON     CLEAR     59  58  96 CALM      30.14R
FAIRFIELD *    CLEAR     59  54  82 SE5       30.14R
FORT MADISON *   N/A     57  55  94 SE5       30.16R
KEOKUK *       CLEAR     59  59 100 SE3       30.15R
OSKALOOSA *      N/A     57  55  94 SE7       30.13R
CENTERVILLE *  CLEAR     57  57 100 SE6       30.14R
OTTUMWA        CLEAR     57  54  89 SE5       30.13R
WASHINGTON *   CLEAR     57  55  94 SE5       30.15R
$$

ABBREVIATIONS USED IN REMARKS
   TC - TEMPERATURES IN CELSIUS
  WCI - WIND CHILL INDEX
   HX - HEAT INDEX
  VSB - VISIBILITY
$$



USA.gov is the U.S. government's official web portal to all federal, state and local government web resources and services.